Hourly Data Report for April 20, 2003

TORONTO CITY
ONTARIO

43°40'00.000" N
79°24'00.000" W
112.50 m
6158355
71508
XTO

Download Data

Hourly Data (April 2003)
Hourly Data Report for April 20, 2003
TIME
LST
Temp Definition
°C
Dew Point Definition
°C
Rel Hum Definition
%
Precip. Amount Definition
mm

Wind Dir Definition
10's deg

Wind Spd Definition
km/h
Visibility Definition
km
Stn Press Definition
kPa
Hmdx Definition


Wind Chill Definition


Weather Definition


00:00 11.3 7.2 76   LegendMM LegendMM LegendMM 100.73     LegendNANA
01:00 9.5 6.4 81   LegendMM LegendMM LegendMM 100.69     LegendNANA
02:00 9.4 6.5 82   LegendMM LegendMM LegendMM 100.64     LegendNANA
03:00 9.0 6.1 82   LegendMM LegendMM LegendMM 100.63     LegendNANA
04:00 9.1 6.3 83   LegendMM LegendMM LegendMM 100.48     LegendNANA
05:00 8.9 6.4 84   LegendMM LegendMM LegendMM 100.56     LegendNANA
06:00 9.4 6.7 83   LegendMM LegendMM LegendMM 100.56     LegendNANA
07:00 9.7 7.0 83   LegendMM LegendMM LegendMM 100.53     LegendNANA
08:00 11.9 7.5 74   LegendMM LegendMM LegendMM 100.51     LegendNANA
09:00 13.0 7.6 70   LegendMM LegendMM LegendMM 100.49     LegendNANA
10:00 13.9 7.8 67   LegendMM LegendMM LegendMM 100.43     LegendNANA
11:00 15.6 8.2 61   LegendMM LegendMM LegendMM 100.40     LegendNANA
12:00 16.2 8.5 60   LegendMM LegendMM LegendMM 100.30     LegendNANA
13:00 16.6 8.6 59   LegendMM LegendMM LegendMM 100.21     LegendNANA
14:00 18.2 9.1 55   LegendMM LegendMM LegendMM 100.10     LegendNANA
15:00 17.3 8.5 56   LegendMM LegendMM LegendMM 100.01     LegendNANA
16:00 18.1 8.9 55   LegendMM LegendMM LegendMM 99.90     LegendNANA
17:00 17.2 8.2 55   LegendMM LegendMM LegendMM 99.79     LegendNANA
18:00 17.1 7.6 54   LegendMM LegendMM LegendMM 99.69     LegendNANA
19:00 17.2 7.7 54   LegendMM LegendMM LegendMM 99.59     LegendNANA
20:00 17.1 8.7 58   LegendMM LegendMM LegendMM 99.76     LegendNANA
21:00 15.3 13.6 90   LegendMM LegendMM LegendMM 99.59     LegendNANA
22:00 16.0 15.0 94   LegendMM LegendMM LegendMM 99.67     LegendNANA
23:00 14.8 14.3 97   LegendMM LegendMM LegendMM 99.59     LegendNANA

Notes on Data Quality.

Legend

  • E = Estimated
  • M = Missing
  • NA = Not Available*
  • [empty] = Indicates an unobserved value
Date modified: